Time,TemperatureF,DewpointF,PressureIn,WindDirection,WindDirectionDegrees,WindSpeedMPH,WindSpeedGustMPH,Humidity,HourlyPrecipIn,Conditions,Clouds,dailyrainin,SoftwareType,DateUTC
2013-03-25 00:03:00,29.0,27.0,30.07,NW,306,4.0,15.0,91,0.00,,,0.00,,2013-03-25 05:03:00,
2013-03-25 00:12:00,29.0,27.0,30.07,NW,306,4.0,15.0,91,0.00,,,0.00,,2013-03-25 05:12:00,
2013-03-25 00:22:00,29.0,27.0,30.07,NNW,329,4.0,11.0,92,0.00,,,0.00,,2013-03-25 05:22:00,
2013-03-25 00:32:00,29.0,27.0,30.07,NW,325,6.0,19.0,92,0.00,,,0.00,,2013-03-25 05:32:00,
2013-03-25 00:42:00,29.0,27.0,30.07,NW,325,6.0,19.0,92,0.00,,,0.00,,2013-03-25 05:42:00,
2013-03-25 00:52:00,29.0,27.0,30.07,North,350,4.0,15.0,91,0.00,,,0.00,,2013-03-25 05:52:00,
2013-03-25 01:02:00,29.0,26.0,30.07,NNW,327,5.0,14.0,90,0.00,,,0.00,,2013-03-25 06:02:00,
2013-03-25 01:12:00,29.0,26.0,30.07,NNW,327,5.0,14.0,90,0.00,,,0.00,,2013-03-25 06:12:00,
2013-03-25 01:22:00,29.0,27.0,30.07,NW,310,3.0,18.0,91,0.00,,,0.00,,2013-03-25 06:22:00,
2013-03-25 01:32:00,29.0,27.0,30.07,NW,321,4.0,13.0,91,0.00,,,0.00,,2013-03-25 06:32:00,
2013-03-25 01:42:00,29.0,27.0,30.07,NW,321,4.0,13.0,91,0.00,,,0.00,,2013-03-25 06:42:00,
2013-03-25 01:52:00,29.0,27.0,30.07,NW,323,4.0,14.0,91,0.00,,,0.00,,2013-03-25 06:52:00,
2013-03-25 02:02:00,29.0,27.0,30.07,NW,323,3.0,15.0,91,0.00,,,0.00,,2013-03-25 07:02:00,
2013-03-25 02:12:00,29.0,27.0,30.07,NW,323,3.0,15.0,91,0.00,,,0.00,,2013-03-25 07:12:00,
2013-03-25 02:22:00,29.0,27.0,30.07,WNW,302,3.0,20.0,92,0.00,,,0.00,,2013-03-25 07:22:00,
2013-03-25 02:32:00,28.0,26.0,30.08,North,349,3.0,13.0,92,0.00,,,0.00,,2013-03-25 07:32:00,
2013-03-25 02:42:00,28.0,26.0,30.08,North,349,3.0,13.0,92,0.00,,,0.00,,2013-03-25 07:42:00,
2013-03-25 02:53:00,28.0,26.0,30.08,NW,314,5.0,15.0,92,0.00,,,0.00,,2013-03-25 07:53:00,
2013-03-25 03:02:00,28.0,26.0,30.07,WNW,292,4.0,14.0,92,0.00,,,0.00,,2013-03-25 08:02:00,
2013-03-25 03:12:00,28.0,26.0,30.07,WNW,292,4.0,14.0,92,0.00,,,0.00,,2013-03-25 08:12:00,
2013-03-25 03:22:00,28.0,26.0,30.07,WNW,302,2.0,11.0,92,0.00,,,0.00,,2013-03-25 08:22:00,
2013-03-25 03:32:00,28.0,26.0,30.07,NNW,341,3.0,13.0,92,0.00,,,0.00,,2013-03-25 08:32:00,
2013-03-25 03:42:00,28.0,26.0,30.07,NNW,341,3.0,13.0,92,0.00,,,0.00,,2013-03-25 08:42:00,
2013-03-25 03:52:00,28.0,26.0,30.08,NW,308,5.0,11.0,93,0.00,,,0.00,,2013-03-25 08:52:00,
2013-03-25 04:02:00,27.0,25.0,30.08,NNW,333,4.0,15.0,93,0.00,,,0.00,,2013-03-25 09:02:00,
2013-03-25 04:12:00,27.0,25.0,30.08,NNW,333,4.0,15.0,93,0.00,,,0.00,,2013-03-25 09:12:00,
2013-03-25 04:22:00,27.0,25.0,30.08,NW,318,5.0,15.0,93,0.00,,,0.00,,2013-03-25 09:22:00,
2013-03-25 04:33:00,27.0,25.0,30.08,WNW,295,2.0,11.0,93,0.00,,,0.00,,2013-03-25 09:33:00,
2013-03-25 04:43:00,27.0,25.0,30.08,WNW,295,2.0,11.0,93,0.00,,,0.00,,2013-03-25 09:43:00,
2013-03-25 04:52:00,27.0,25.0,30.08,WNW,295,4.0,13.0,91,0.00,,,0.00,,2013-03-25 09:52:00,
2013-03-25 05:03:00,27.0,24.0,30.09,NNW,333,6.0,17.0,88,0.00,,,0.00,,2013-03-25 10:03:00,
2013-03-25 05:12:00,27.0,24.0,30.09,NNW,333,6.0,17.0,88,0.00,,,0.00,,2013-03-25 10:12:00,
2013-03-25 05:22:00,27.0,23.0,30.09,NW,311,2.0,13.0,85,0.00,,,0.00,,2013-03-25 10:22:00,
2013-03-25 05:32:00,27.0,23.0,30.09,NW,304,3.0,12.0,84,0.00,,,0.00,,2013-03-25 10:32:00,
2013-03-25 05:42:00,27.0,23.0,30.09,NW,304,3.0,12.0,84,0.00,,,0.00,,2013-03-25 10:42:00,
2013-03-25 05:54:00,27.0,23.0,30.10,NW,310,3.0,16.0,84,0.00,,,0.00,,2013-03-25 10:54:00,
2013-03-25 06:03:00,27.0,23.0,30.10,NW,318,4.0,14.0,85,0.00,,,0.00,,2013-03-25 11:03:00,
2013-03-25 06:12:00,27.0,23.0,30.10,NW,318,4.0,14.0,85,0.00,,,0.00,,2013-03-25 11:12:00,
2013-03-25 06:23:00,27.0,23.0,30.11,WNW,288,3.0,13.0,86,0.00,,,0.00,,2013-03-25 11:23:00,
2013-03-25 06:32:00,27.0,23.0,30.11,NNW,343,3.0,11.0,86,0.00,,,0.00,,2013-03-25 11:32:00,
2013-03-25 06:42:00,27.0,23.0,30.11,NNW,343,3.0,11.0,86,0.00,,,0.00,,2013-03-25 11:42:00,
2013-03-25 06:52:00,27.0,23.0,30.11,West,273,4.0,11.0,84,0.00,,,0.00,,2013-03-25 11:52:00,
2013-03-25 07:02:00,27.0,22.0,30.12,NW,317,4.0,21.0,81,0.00,,,0.00,,2013-03-25 12:02:00,
2013-03-25 07:13:00,27.0,22.0,30.12,NW,317,4.0,21.0,81,0.00,,,0.00,,2013-03-25 12:13:00,
2013-03-25 07:23:00,27.0,22.0,30.12,NW,316,4.0,16.0,80,0.00,,,0.00,,2013-03-25 12:23:00,
2013-03-25 07:32:00,27.0,21.0,30.13,NNW,331,4.0,20.0,79,0.00,,,0.00,,2013-03-25 12:32:00,
2013-03-25 07:42:00,27.0,21.0,30.13,NNW,331,4.0,20.0,79,0.00,,,0.00,,2013-03-25 12:42:00,
2013-03-25 07:53:00,26.0,21.0,30.14,WNW,302,3.0,14.0,81,0.00,,,0.00,,2013-03-25 12:53:00,
2013-03-25 08:02:00,26.0,21.0,30.14,NNW,335,4.0,15.0,82,0.00,,,0.00,,2013-03-25 13:02:00,
2013-03-25 08:13:00,26.0,21.0,30.14,NNW,335,4.0,15.0,82,0.00,,,0.00,,2013-03-25 13:13:00,
2013-03-25 08:22:00,26.0,21.0,30.15,NNW,333,4.0,18.0,82,0.00,,,0.00,,2013-03-25 13:22:00,
2013-03-25 08:32:00,27.0,22.0,30.15,WNW,301,5.0,17.0,82,0.00,,,0.00,,2013-03-25 13:32:00,
2013-03-25 08:42:00,27.0,22.0,30.15,WNW,301,5.0,17.0,82,0.00,,,0.00,,2013-03-25 13:42:00,
2013-03-25 08:52:00,27.0,22.0,30.16,NNE,24,3.0,14.0,80,0.00,,,0.00,,2013-03-25 13:52:00,
2013-03-25 09:03:00,27.0,21.0,30.16,NNW,329,7.0,15.0,79,0.00,,,0.00,,2013-03-25 14:03:00,
2013-03-25 09:12:00,27.0,21.0,30.16,NNW,329,7.0,15.0,79,0.00,,,0.00,,2013-03-25 14:12:00,
2013-03-25 09:22:00,28.0,22.0,30.17,WNW,295,6.0,17.0,78,0.00,,,0.00,,2013-03-25 14:22:00,
2013-03-25 09:32:00,28.0,22.0,30.17,WNW,286,3.0,17.0,78,0.00,,,0.00,,2013-03-25 14:32:00,
2013-03-25 09:42:00,28.0,22.0,30.17,WNW,286,3.0,17.0,78,0.00,,,0.00,,2013-03-25 14:42:00,
2013-03-25 09:53:00,28.0,22.0,30.17,NNW,346,6.0,14.0,77,0.00,,,0.00,,2013-03-25 14:53:00,
2013-03-25 10:02:00,29.0,23.0,30.18,NW,314,4.0,23.0,77,0.00,,,0.00,,2013-03-25 15:02:00,
2013-03-25 10:12:00,29.0,23.0,30.18,NW,314,4.0,23.0,77,0.00,,,0.00,,2013-03-25 15:12:00,
2013-03-25 10:22:00,29.0,23.0,30.18,NW,326,6.0,16.0,77,0.00,,,0.00,,2013-03-25 15:22:00,
2013-03-25 10:32:00,29.0,22.0,30.19,NW,323,5.0,24.0,75,0.00,,,0.00,,2013-03-25 15:32:00,
2013-03-25 10:42:00,29.0,22.0,30.19,NW,323,5.0,24.0,75,0.00,,,0.00,,2013-03-25 15:42:00,
2013-03-25 10:53:00,30.0,23.0,30.19,NW,323,6.0,21.0,75,0.00,,,0.00,,2013-03-25 15:53:00,
2013-03-25 11:03:00,30.0,23.0,30.19,NNW,329,4.0,14.0,76,0.00,,,0.00,,2013-03-25 16:03:00,
2013-03-25 11:12:00,30.0,23.0,30.19,NNW,329,4.0,14.0,76,0.00,,,0.00,,2013-03-25 16:12:00,
2013-03-25 11:23:00,30.0,23.0,30.19,NNW,329,4.0,14.0,76,0.00,,,0.00,,2013-03-25 16:23:00,
2013-03-25 11:33:00,31.0,23.0,30.20,NNW,335,6.0,10.0,72,0.00,,,0.00,,2013-03-25 16:33:00,
2013-03-25 11:43:00,31.0,23.0,30.20,NNW,335,6.0,10.0,72,0.00,,,0.00,,2013-03-25 16:43:00,
2013-03-25 11:53:00,32.0,24.0,30.20,WNW,288,4.0,10.0,73,0.00,,,0.00,,2013-03-25 16:53:00,
2013-03-25 12:02:00,32.0,24.0,30.20,WNW,298,5.0,10.0,71,0.00,,,0.00,,2013-03-25 17:02:00,
2013-03-25 12:12:00,32.0,24.0,30.20,WNW,298,5.0,10.0,71,0.00,,,0.00,,2013-03-25 17:12:00,
2013-03-25 12:23:00,32.0,24.0,30.20,NNW,339,6.0,10.0,72,0.00,,,0.00,,2013-03-25 17:23:00,
2013-03-25 12:32:00,33.0,26.0,30.21,WNW,300,4.0,9.0,74,0.00,,,0.00,,2013-03-25 17:32:00,
2013-03-25 12:42:00,33.0,26.0,30.21,WNW,300,4.0,9.0,74,0.00,,,0.00,,2013-03-25 17:42:00,
2013-03-25 12:53:00,32.0,24.0,30.20,West,275,5.0,10.0,72,0.00,,,0.00,,2013-03-25 17:53:00,
2013-03-25 13:03:00,33.0,25.0,30.20,NW,321,4.0,11.0,71,0.00,,,0.00,,2013-03-25 18:03:00,
2013-03-25 13:12:00,33.0,25.0,30.20,NW,321,4.0,11.0,71,0.00,,,0.00,,2013-03-25 18:12:00,
2013-03-25 13:22:00,33.0,25.0,30.20,NW,318,5.0,12.0,71,0.00,,,0.00,,2013-03-25 18:22:00,
2013-03-25 13:32:00,34.0,25.0,30.20,WNW,288,5.0,12.0,70,0.00,,,0.00,,2013-03-25 18:32:00,
2013-03-25 13:42:00,34.0,25.0,30.20,WNW,288,5.0,12.0,70,0.00,,,0.00,,2013-03-25 18:42:00,
2013-03-25 13:53:00,35.0,26.0,30.20,NW,304,5.0,11.0,70,0.00,,,0.00,,2013-03-25 18:53:00,
2013-03-25 14:03:00,35.0,26.0,30.20,NNW,338,5.0,11.0,70,0.00,,,0.00,,2013-03-25 19:03:00,
2013-03-25 14:12:00,35.0,26.0,30.20,NNW,338,5.0,11.0,70,0.00,,,0.00,,2013-03-25 19:12:00,
2013-03-25 14:23:00,35.0,26.0,30.20,NNW,334,4.0,11.0,70,0.00,,,0.00,,2013-03-25 19:23:00,
2013-03-25 14:33:00,35.0,26.0,30.20,WNW,296,4.0,15.0,70,0.00,,,0.00,,2013-03-25 19:33:00,
2013-03-25 14:42:00,35.0,26.0,30.20,WNW,296,4.0,15.0,70,0.00,,,0.00,,2013-03-25 19:42:00,
2013-03-25 14:52:00,35.0,25.0,30.20,NNW,328,6.0,14.0,66,0.00,,,0.00,,2013-03-25 19:52:00,
2013-03-25 15:02:00,35.0,24.0,30.20,NW,304,5.0,11.0,65,0.00,,,0.00,,2013-03-25 20:02:00,
2013-03-25 15:12:00,35.0,24.0,30.20,NW,304,5.0,11.0,65,0.00,,,0.00,,2013-03-25 20:12:00,
2013-03-25 15:22:00,35.0,24.0,30.20,WNW,301,6.0,12.0,63,0.00,,,0.00,,2013-03-25 20:22:00,
2013-03-25 15:32:00,35.0,23.0,30.20,West,265,6.0,13.0,61,0.00,,,0.00,,2013-03-25 20:32:00,
2013-03-25 15:42:00,35.0,23.0,30.20,West,265,6.0,13.0,61,0.00,,,0.00,,2013-03-25 20:42:00,
2013-03-25 15:52:00,36.0,24.0,30.20,NNW,328,6.0,17.0,62,0.00,,,0.00,,2013-03-25 20:52:00,
2013-03-25 16:02:00,36.0,23.0,30.20,West,272,7.0,13.0,59,0.00,,,0.00,,2013-03-25 21:02:00,
2013-03-25 16:12:00,36.0,23.0,30.20,West,272,7.0,13.0,59,0.00,,,0.00,,2013-03-25 21:12:00,
2013-03-25 16:22:00,36.0,24.0,30.20,NW,317,5.0,12.0,62,0.00,,,0.00,,2013-03-25 21:22:00,
2013-03-25 16:33:00,36.0,25.0,30.21,NNE,17,5.0,11.0,63,0.00,,,0.00,,2013-03-25 21:33:00,
2013-03-25 16:42:00,36.0,25.0,30.21,NNE,17,5.0,11.0,63,0.00,,,0.00,,2013-03-25 21:42:00,
2013-03-25 16:52:00,35.0,24.0,30.21,WNW,300,4.0,12.0,65,0.00,,,0.00,,2013-03-25 21:52:00,
2013-03-25 17:03:00,36.0,24.0,30.21,NW,320,5.0,10.0,62,0.00,,,0.00,,2013-03-25 22:03:00,
2013-03-25 17:12:00,36.0,24.0,30.21,NW,320,5.0,10.0,62,0.00,,,0.00,,2013-03-25 22:12:00,
2013-03-25 17:23:00,34.0,23.0,30.21,North,355,4.0,11.0,64,0.00,,,0.00,,2013-03-25 22:23:00,
2013-03-25 17:33:00,34.0,23.0,30.21,NW,319,3.0,19.0,64,0.00,,,0.00,,2013-03-25 22:33:00,
2013-03-25 17:42:00,34.0,23.0,30.21,NW,319,3.0,19.0,64,0.00,,,0.00,,2013-03-25 22:42:00,
2013-03-25 17:52:00,34.0,23.0,30.22,North,355,7.0,16.0,65,0.00,,,0.00,,2013-03-25 22:52:00,
2013-03-25 18:02:00,34.0,25.0,30.22,NW,309,3.0,16.0,69,0.00,,,0.00,,2013-03-25 23:02:00,
2013-03-25 18:12:00,34.0,25.0,30.22,NW,309,3.0,16.0,69,0.00,,,0.00,,2013-03-25 23:12:00,
2013-03-25 18:23:00,34.0,26.0,30.22,NW,312,5.0,23.0,73,0.00,,,0.00,,2013-03-25 23:23:00,
2013-03-25 18:32:00,34.0,26.0,30.23,NW,312,4.0,16.0,73,0.00,,,0.00,,2013-03-25 23:32:00,
2013-03-25 18:42:00,34.0,26.0,30.23,NW,312,4.0,16.0,73,0.00,,,0.00,,2013-03-25 23:42:00,
2013-03-25 18:53:00,33.0,25.0,30.23,NW,319,5.0,18.0,73,0.00,,,0.00,,2013-03-25 23:53:00,
2013-03-25 19:02:00,33.0,27.0,30.24,WNW,297,4.0,15.0,77,0.00,,,0.00,,2013-03-26 00:02:00,
2013-03-25 19:12:00,33.0,27.0,30.24,WNW,297,4.0,15.0,77,0.00,,,0.00,,2013-03-26 00:12:00,
2013-03-25 19:22:00,32.0,26.0,30.24,NW,319,5.0,23.0,78,0.00,,,0.00,,2013-03-26 00:22:00,
2013-03-25 19:32:00,31.0,26.0,30.25,NW,325,5.0,14.0,80,0.00,,,0.00,,2013-03-26 00:32:00,
2013-03-25 19:42:00,31.0,26.0,30.25,NW,325,5.0,14.0,80,0.00,,,0.00,,2013-03-26 00:42:00,
2013-03-25 19:52:00,31.0,26.0,30.25,WNW,294,3.0,11.0,82,0.00,,,0.00,,2013-03-26 00:52:00,
2013-03-25 20:02:00,30.0,25.0,30.26,West,281,5.0,21.0,83,0.00,,,0.00,,2013-03-26 01:02:00,
2013-03-25 20:12:00,30.0,25.0,30.26,West,281,5.0,21.0,83,0.00,,,0.00,,2013-03-26 01:12:00,
2013-03-25 20:22:00,30.0,25.0,30.26,NW,318,3.0,25.0,83,0.00,,,0.00,,2013-03-26 01:22:00,
2013-03-25 20:32:00,30.0,26.0,30.26,WNW,289,4.0,14.0,84,0.00,,,0.00,,2013-03-26 01:32:00,
2013-03-25 20:42:00,30.0,26.0,30.26,WNW,289,4.0,14.0,84,0.00,,,0.00,,2013-03-26 01:42:00,
2013-03-25 20:52:00,30.0,26.0,30.27,WNW,292,6.0,23.0,85,0.00,,,0.00,,2013-03-26 01:52:00,
2013-03-25 21:02:00,29.0,25.0,30.27,WSW,252,4.0,19.0,86,0.00,,,0.00,,2013-03-26 02:02:00,
2013-03-25 21:12:00,29.0,25.0,30.27,WSW,252,4.0,19.0,86,0.00,,,0.00,,2013-03-26 02:12:00,
2013-03-25 21:22:00,29.0,25.0,30.28,WNW,289,5.0,23.0,86,0.00,,,0.00,,2013-03-26 02:22:00,
2013-03-25 21:32:00,28.0,24.0,30.28,WNW,300,5.0,20.0,85,0.00,,,0.00,,2013-03-26 02:32:00,
2013-03-25 21:42:00,28.0,24.0,30.28,WNW,300,5.0,20.0,85,0.00,,,0.00,,2013-03-26 02:42:00,
2013-03-25 21:52:00,28.0,24.0,30.29,NNW,331,4.0,21.0,86,0.00,,,0.00,,2013-03-26 02:52:00,
2013-03-25 22:02:00,28.0,24.0,30.29,WNW,290,11.0,27.0,86,0.00,,,0.00,,2013-03-26 03:02:00,
2013-03-25 22:12:00,28.0,24.0,30.29,WNW,290,11.0,27.0,86,0.00,,,0.00,,2013-03-26 03:12:00,
2013-03-25 22:22:00,27.0,23.0,30.29,NW,307,3.0,18.0,85,0.00,,,0.00,,2013-03-26 03:22:00,
2013-03-25 22:33:00,27.0,24.0,30.30,WNW,286,10.0,23.0,87,0.00,,,0.00,,2013-03-26 03:33:00,
2013-03-25 22:42:00,27.0,24.0,30.30,WNW,286,10.0,23.0,87,0.00,,,0.00,,2013-03-26 03:42:00,
2013-03-25 22:53:00,27.0,24.0,30.30,NW,325,5.0,24.0,87,0.00,,,0.00,,2013-03-26 03:53:00,
2013-03-25 23:03:00,26.0,22.0,30.30,WNW,290,5.0,23.0,85,0.00,,,0.00,,2013-03-26 04:03:00,
2013-03-25 23:12:00,26.0,22.0,30.30,WNW,290,5.0,23.0,85,0.00,,,0.00,,2013-03-26 04:12:00,
2013-03-25 23:23:00,26.0,23.0,30.30,WNW,295,5.0,18.0,87,0.00,,,0.00,,2013-03-26 04:23:00,
2013-03-25 23:32:00,26.0,23.0,30.31,NW,308,4.0,15.0,87,0.00,,,0.00,,2013-03-26 04:32:00,
2013-03-25 23:43:00,26.0,23.0,30.31,NW,308,4.0,15.0,87,0.00,,,0.00,,2013-03-26 04:43:00,
2013-03-25 23:53:00,25.0,21.0,30.31,West,280,8.0,19.0,86,0.00,,,0.00,,2013-03-26 04:53:00,